| time (UTC) | temp F | wind direction | speed MPH | gust MPH | rain 1hr in | rain 24hr in | rain mn in | humidity % | barometer mb |
| 20260906215557 | 53 | 0.0 | 0.0 | 0.00 | 0.00 | 0.00 | 81 | 1032.4 | |
| 20260906214545 | 53 | 0.0 | 0.0 | 0.00 | 0.00 | 0.00 | 81 | 1032.3 | |
| 20260906213021 | 53 | 0.0 | 0.0 | 0.00 | 0.00 | 0.00 | 80 | 1032.2 | |
| 20260906212111 | 53 | 0.0 | 0.0 | 0.00 | 0.00 | 0.00 | 80 | 1032.3 | |
| 20260906210558 | 54 | 0.0 | 0.0 | 0.00 | 0.00 | 0.00 | 79 | 1032.5 | |
| 20260906205609 | 54 | 0.0 | 0.0 | 0.00 | 0.00 | 0.00 | 78 | 1032.3 | |
| 20260906204111 | 56 | 0.0 | 0.0 | 0.00 | 0.00 | 0.00 | 75 | 1032.6 | |
| 20260906202556 | 56 | 0.0 | 0.0 | 0.00 | 0.00 | 0.00 | 73 | 1032.5 | |
| 20260906201521 | 57 | 0.0 | 0.0 | 0.00 | 0.00 | 0.00 | 70 | 1032.6 | |
| 20260906200059 | 56 | 0.0 | 0.0 | 0.00 | 0.00 | 0.00 | 74 | 1032.6 | |
| 20260906194559 | 57 | 0.0 | 0.0 | 0.00 | 0.00 | 0.00 | 72 | 1032.8 | |
| 20260906193523 | 58 | 0.0 | 0.0 | 0.00 | 0.00 | 0.00 | 70 | 1032.9 | |
| 20260906192111 | 59 | 0.0 | 0.0 | 0.00 | 0.00 | 0.00 | 66 | 1032.9 | |
| 20260906190521 | 60 | 0.0 | 0.0 | 0.00 | 0.00 | 0.00 | 65 | 1032.9 | |
| 20260906185610 | 61 | 0.0 | 0.0 | 0.00 | 0.00 | 0.00 | 65 | 1032.8 | |
| 20260906184109 | 61 | 0.0 | 0.0 | 0.00 | 0.00 | 0.00 | 64 | 1032.9 | |
| 20260906182557 | 61 | 0.0 | 0.0 | 0.00 | 0.00 | 0.00 | 65 | 1032.9 | |
| 20260906181609 | 62 | 0.0 | 0.0 | 0.00 | 0.00 | 0.00 | 64 | 1033.0 | |
| 20260906180110 | 63 | 0.0 | 0.0 | 0.00 | 0.00 | 0.00 | 64 | 1033.0 | |
| 20260906174533 | 64 | 0.0 | 2.0 | 0.00 | 0.00 | 0.00 | 62 | 1032.9 | |
| 20260906173521 | 64 | 0.0 | 2.0 | 0.00 | 0.00 | 0.00 | 63 | 1032.9 | |
| 20260906172108 | 65 | 0.0 | 0.0 | 0.00 | 0.00 | 0.00 | 61 | 1032.8 | |
| 20260906171057 | 66 | 0.0 | 0.0 | 0.00 | 0.00 | 0.00 | 60 | 1032.9 | |
| 20260906170022 | 66 | 0.0 | 2.0 | 0.00 | 0.00 | 0.00 | 58 | 1032.9 | |
| 20260906165109 | 66 | 0.0 | 0.0 | 0.00 | 0.00 | 0.00 | 58 | 1032.9 | |
| 20260906164058 | 67 | 0.0 | 0.0 | 0.00 | 0.00 | 0.00 | 58 | 1032.8 | |
| 20260906163021 | 67 | 90 | 0.0 | 2.0 | 0.00 | 0.00 | 0.00 | 57 | 1032.9 |
| 20260906162110 | 67 | 109 | 0.0 | 4.0 | 0.00 | 0.00 | 0.00 | 55 | 1033.0 |
| 20260906161057 | 68 | 90 | 0.0 | 2.0 | 0.00 | 0.00 | 0.00 | 54 | 1033.0 |
| 20260906160021 | 68 | 115 | 1.0 | 2.0 | 0.00 | 0.00 | 0.00 | 52 | 1033.2 |
| 20260906155109 | 69 | 128 | 0.0 | 2.0 | 0.00 | 0.00 | 0.00 | 51 | 1033.1 |
| 20260906154057 | 69 | 293 | 0.0 | 2.0 | 0.00 | 0.00 | 0.00 | 50 | 1033.2 |
| 20260906152610 | 69 | 169 | 0.0 | 2.0 | 0.00 | 0.00 | 0.00 | 50 | 1033.3 |
| 20260906151109 | 70 | 93 | 1.0 | 4.0 | 0.00 | 0.00 | 0.00 | 49 | 1033.3 |
| 20260906150056 | 70 | 0.0 | 0.0 | 0.00 | 0.00 | 0.00 | 48 | 1033.3 | |
| 20260906145109 | 70 | 298 | 2.0 | 4.0 | 0.00 | 0.00 | 0.00 | 50 | 1033.4 |
| 20260906144059 | 71 | 293 | 2.0 | 2.0 | 0.00 | 0.00 | 0.00 | 50 | 1033.5 |
| 20260906143109 | 71 | 234 | 1.0 | 4.0 | 0.00 | 0.00 | 0.00 | 49 | 1033.5 |
| 20260906142057 | 73 | 0.0 | 2.0 | 0.00 | 0.00 | 0.00 | 48 | 1033.5 | |
| 20260906141021 | 72 | 79 | 0.0 | 4.0 | 0.00 | 0.00 | 0.00 | 48 | 1033.6 |
| 20260906140111 | 73 | 280 | 2.0 | 4.0 | 0.00 | 0.00 | 0.00 | 47 | 1033.7 |
| 20260906134558 | 71 | 260 | 2.0 | 6.0 | 0.00 | 0.00 | 0.00 | 48 | 1033.8 |
| 20260906133521 | 72 | 203 | 0.0 | 6.0 | 0.00 | 0.00 | 0.00 | 48 | 1033.9 |
| 20260906132057 | 70 | 293 | 2.0 | 4.0 | 0.00 | 0.00 | 0.00 | 49 | 1033.9 |
| 20260906131023 | 72 | 270 | 3.0 | 8.0 | 0.00 | 0.00 | 0.00 | 49 | 1034.0 |
| 20260906130111 | 71 | 336 | 2.0 | 4.0 | 0.00 | 0.00 | 0.00 | 49 | 1034.2 |
| 20260906124522 | 71 | 211 | 1.0 | 6.0 | 0.00 | 0.00 | 0.00 | 51 | 1034.2 |
| 20260906123609 | 73 | 289 | 1.0 | 4.0 | 0.00 | 0.00 | 0.00 | 48 | 1034.2 |
| 20260906122110 | 70 | 254 | 1.0 | 4.0 | 0.00 | 0.00 | 0.00 | 53 | 1034.4 |
| 20260906120557 | 72 | 56 | 1.0 | 4.0 | 0.00 | 0.00 | 0.00 | 49 | 1034.6 |
| 20260906115609 | 70 | 224 | 1.0 | 4.0 | 0.00 | 0.00 | 0.00 | 51 | 1034.7 |
| 20260906114557 | 70 | 45 | 1.0 | 2.0 | 0.00 | 0.00 | 0.00 | 52 | 1034.5 |
| 20260906113611 | 69 | 318 | 3.0 | 7.0 | 0.00 | 0.00 | 0.00 | 52 | 1034.7 |
| 20260906112110 | 68 | 265 | 2.0 | 4.0 | 0.00 | 0.00 | 0.00 | 54 | 1034.8 |
| 20260906110556 | 68 | 135 | 0.0 | 2.0 | 0.00 | 0.00 | 0.00 | 52 | 1034.5 |
| 20260906105608 | 67 | 279 | 1.0 | 4.0 | 0.00 | 0.00 | 0.00 | 56 | 1034.6 |
| 20260906104556 | 67 | 0.0 | 2.0 | 0.00 | 0.00 | 0.00 | 56 | 1034.7 | |
| 20260906103557 | 67 | 276 | 1.0 | 7.0 | 0.00 | 0.00 | 0.00 | 56 | 1034.8 |
| 20260906102545 | 66 | 288 | 1.0 | 4.0 | 0.00 | 0.00 | 0.00 | 58 | 1034.9 |
| 20260906101534 | 68 | 230 | 3.0 | 7.0 | 0.00 | 0.00 | 0.00 | 56 | 1034.9 |
| 20260906100521 | 67 | 0 | 0.0 | 2.0 | 0.00 | 0.00 | 0.00 | 57 | 1035.0 |
| 20260906095611 | 67 | 236 | 2.0 | 4.0 | 0.00 | 0.00 | 0.00 | 57 | 1034.8 |
| 20260906094110 | 65 | 250 | 1.0 | 4.0 | 0.00 | 0.00 | 0.00 | 60 | 1034.8 |
| 20260906092557 | 66 | 292 | 1.0 | 2.0 | 0.00 | 0.00 | 0.00 | 59 | 1034.9 |
| 20260906091523 | 66 | 246 | 1.0 | 4.0 | 0.00 | 0.00 | 0.00 | 60 | 1035.0 |
| 20260906090112 | 66 | 204 | 1.0 | 2.0 | 0.00 | 0.00 | 0.00 | 58 | 1034.9 |
| 20260906084556 | 66 | 304 | 1.0 | 2.0 | 0.00 | 0.00 | 0.00 | 58 | 1034.8 |
| 20260906083609 | 66 | 346 | 1.0 | 4.0 | 0.00 | 0.00 | 0.00 | 58 | 1034.7 |
| 20260906082556 | 65 | 293 | 1.0 | 2.0 | 0.00 | 0.00 | 0.00 | 58 | 1034.7 |
| 20260906081523 | 65 | 44 | 1.0 | 2.0 | 0.00 | 0.00 | 0.00 | 59 | 1034.6 |
| 20260906080058 | 64 | 315 | 1.0 | 2.0 | 0.00 | 0.00 | 0.00 | 62 | 1034.8 |
| 20260906075109 | 62 | 279 | 1.0 | 2.0 | 0.00 | 0.00 | 0.00 | 65 | 1034.8 |
| 20260906074059 | 62 | 297 | 1.0 | 4.0 | 0.00 | 0.00 | 0.00 | 65 | 1034.6 |
| 20260906072601 | 61 | 281 | 1.0 | 2.0 | 0.00 | 0.00 | 0.00 | 68 | 1034.6 |
| 20260906071522 | 60 | 244 | 2.0 | 7.0 | 0.00 | 0.00 | 0.00 | 69 | 1034.5 |
| 20260906070058 | 59 | 270 | 2.0 | 6.0 | 0.00 | 0.00 | 0.00 | 69 | 1034.3 |
| 20260906065109 | 59 | 337 | 2.0 | 4.0 | 0.00 | 0.00 | 0.00 | 71 | 1034.2 |
| 20260906064058 | 59 | 248 | 1.0 | 2.0 | 0.00 | 0.00 | 0.00 | 70 | 1034.2 |
| 20260906063022 | 58 | 229 | 1.0 | 4.0 | 0.00 | 0.00 | 0.00 | 73 | 1034.0 |
| 20260906062112 | 57 | 240 | 0.0 | 2.0 | 0.00 | 0.00 | 0.00 | 74 | 1033.9 |
| 20260906060523 | 56 | 210 | 0.0 | 2.0 | 0.00 | 0.00 | 0.00 | 76 | 1033.8 |
| 20260906055609 | 56 | 225 | 1.0 | 2.0 | 0.00 | 0.00 | 0.00 | 77 | 1033.9 |
| 20260906054557 | 55 | 225 | 1.0 | 2.0 | 0.00 | 0.00 | 0.00 | 78 | 1034.0 |
| 20260906053611 | 54 | 231 | 1.0 | 2.0 | 0.00 | 0.00 | 0.00 | 81 | 1033.7 |
| 20260906052110 | 52 | 0.0 | 2.0 | 0.00 | 0.00 | 0.00 | 84 | 1033.4 | |
| 20260906050557 | 51 | 0.0 | 0.0 | 0.00 | 0.00 | 0.00 | 85 | 1033.3 | |
| 20260906045609 | 51 | 225 | 1.0 | 2.0 | 0.00 | 0.00 | 0.00 | 84 | 1033.4 |
| 20260906044110 | 51 | 225 | 0.0 | 2.0 | 0.00 | 0.00 | 0.00 | 85 | 1033.3 |
| 20260906042556 | 51 | 0.0 | 0.0 | 0.00 | 0.00 | 0.00 | 85 | 1033.2 | |
| 20260906041532 | 51 | 248 | 1.0 | 2.0 | 0.00 | 0.00 | 0.00 | 85 | 1033.1 |
| 20260906040523 | 51 | 225 | 0.0 | 2.0 | 0.00 | 0.00 | 0.00 | 86 | 1032.9 |
| 20260906035611 | 51 | 0.0 | 0.0 | 0.00 | 0.00 | 0.00 | 86 | 1032.9 | |
| 20260906034556 | 51 | 0.0 | 0.0 | 0.00 | 0.00 | 0.00 | 86 | 1033.1 | |
| 20260906033557 | 51 | 0.0 | 0.0 | 0.00 | 0.00 | 0.00 | 86 | 1033.0 | |
| 20260906032546 | 51 | 0.0 | 0.0 | 0.00 | 0.00 | 0.00 | 85 | 1032.7 | |
| 20260906031522 | 52 | 270 | 0.0 | 2.0 | 0.00 | 0.00 | 0.00 | 85 | 1032.7 |
| 20260906030110 | 53 | 0.0 | 2.0 | 0.00 | 0.00 | 0.00 | 83 | 1032.7 | |
| 20260906024558 | 53 | 0.0 | 0.0 | 0.00 | 0.00 | 0.00 | 83 | 1032.5 | |
| 20260906023522 | 53 | 248 | 0.0 | 2.0 | 0.00 | 0.00 | 0.00 | 83 | 1032.5 |
| 20260906022033 | 53 | 263 | 0.0 | 2.0 | 0.00 | 0.00 | 0.00 | 83 | 1032.4 |
| 20260906021022 | 53 | 0.0 | 2.0 | 0.00 | 0.00 | 0.00 | 81 | 1032.4 | |
| 20260906020110 | 53 | 293 | 0.0 | 2.0 | 0.00 | 0.00 | 0.00 | 82 | 1032.3 |
| 20260906014556 | 53 | 0.0 | 0.0 | 0.00 | 0.00 | 0.00 | 82 | 1032.3 | |
| 20260906013521 | 54 | 281 | 0.0 | 2.0 | 0.00 | 0.00 | 0.00 | 81 | 1032.1 |
| 20260906012055 | 54 | 0.0 | 0.0 | 0.00 | 0.00 | 0.00 | 81 | 1031.9 | |
| 20260906011020 | 54 | 293 | 1.0 | 4.0 | 0.00 | 0.00 | 0.00 | 79 | 1031.9 |
| 20260906010111 | 55 | 0.0 | 0.0 | 0.00 | 0.00 | 0.00 | 79 | 1031.9 | |
| 20260906004521 | 55 | 255 | 0.0 | 2.0 | 0.00 | 0.00 | 0.00 | 77 | 1031.8 |
| 20260906003610 | 55 | 253 | 1.0 | 2.0 | 0.00 | 0.00 | 0.00 | 77 | 1031.8 |
| 20260906002558 | 55 | 259 | 1.0 | 4.0 | 0.00 | 0.00 | 0.00 | 77 | 1031.8 |
| 20260906001607 | 55 | 0.0 | 0.0 | 0.00 | 0.00 | 0.00 | 78 | 1031.7 | |
| 20260906000556 | 55 | 270 | 1.0 | 2.0 | 0.00 | 0.00 | 0.00 | 78 | 1031.6 |
| 20260905235611 | 55 | 0.0 | 2.0 | 0.00 | 0.00 | 0.00 | 79 | 1031.5 | |
| 20260905234110 | 56 | 0.0 | 0.0 | 0.00 | 0.00 | 0.00 | 78 | 1031.5 | |
| 20260905232521 | 56 | 0.0 | 2.0 | 0.00 | 0.00 | 0.00 | 78 | 1031.3 | |
| 20260905231609 | 56 | 263 | 0.0 | 2.0 | 0.00 | 0.00 | 0.00 | 77 | 1031.2 |
| 20260905230558 | 56 | 293 | 0.0 | 2.0 | 0.00 | 0.00 | 0.00 | 77 | 1031.2 |
| 20260905225611 | 56 | 270 | 0.0 | 2.0 | 0.00 | 0.00 | 0.00 | 76 | 1031.0 |
| 20260905224110 | 57 | 270 | 0.0 | 2.0 | 0.00 | 0.00 | 0.00 | 75 | 1030.9 |
| 20260905222556 | 57 | 293 | 1.0 | 2.0 | 0.00 | 0.00 | 0.00 | 75 | 1030.7 |
| 20260905221521 | 57 | 255 | 0.0 | 2.0 | 0.00 | 0.00 | 0.00 | 74 | 1030.7 |
| 20260905220111 | 56 | 270 | 0.0 | 2.0 | 0.00 | 0.00 | 0.00 | 76 | 1030.5 |